TimeEDT,TemperatureF,Dew PointF,Humidity,Sea Level PressureIn,VisibilityMPH,Wind Direction,Wind SpeedMPH,Gust SpeedMPH,PrecipitationIn,Events,Conditions,WindDirDegrees,DateUTC
1:54 AM,46.9,30.9,54,30.31,10.0,SSW,5.8,-,N/A,,Overcast,210,2012-10-14 05:54:00
2:54 AM,46.9,34.0,61,30.26,10.0,Calm,Calm,-,0.00,Rain,Light Rain,0,2012-10-14 06:54:00
3:54 AM,45.0,37.0,74,30.26,10.0,Calm,Calm,-,0.02,Rain,Light Rain,0,2012-10-14 07:54:00
4:54 AM,45.0,39.0,80,30.23,10.0,SE,3.5,-,0.01,Rain,Light Rain,130,2012-10-14 08:54:00
5:54 AM,46.0,41.0,83,30.21,6.0,SSE,3.5,-,0.05,Rain,Rain,160,2012-10-14 09:54:00
6:54 AM,48.0,44.1,86,30.18,5.0,Variable,3.5,-,0.17,Rain,Rain,0,2012-10-14 10:54:00
7:54 AM,48.9,45.0,86,30.16,3.0,South,6.9,-,0.21,Rain,Rain,180,2012-10-14 11:54:00
8:54 AM,50.0,46.9,89,30.16,3.0,SSW,5.8,-,0.06,Rain,Light Rain,200,2012-10-14 12:54:00
9:28 AM,51.8,48.2,88,30.13,10.0,SSW,8.1,16.1,0.01,Rain,Light Rain,210,2012-10-14 13:28:00
9:54 AM,51.1,48.0,89,30.13,10.0,SSW,6.9,-,0.01,Rain,Light Rain,210,2012-10-14 13:54:00
10:54 AM,53.1,48.9,86,30.12,10.0,SW,8.1,-,0.01,Rain,Light Rain,220,2012-10-14 14:54:00
11:54 AM,55.0,50.0,83,30.12,10.0,SW,10.4,17.3,0.00,,Overcast,220,2012-10-14 15:54:00
12:54 PM,55.9,51.1,84,30.09,10.0,SSW,8.1,-,0.00,,Overcast,210,2012-10-14 16:54:00
1:54 PM,55.9,51.1,84,30.07,8.0,SSW,6.9,-,0.02,Rain,Light Rain,210,2012-10-14 17:54:00
2:54 PM,57.9,53.1,84,30.04,10.0,SW,6.9,-,0.00,,Overcast,230,2012-10-14 18:54:00
3:54 PM,60.8,53.6,77,30.01,10.0,SSW,3.5,-,N/A,,Scattered Clouds,200,2012-10-14 19:54:00
4:54 PM,64.0,53.1,67,30.01,10.0,SW,8.1,-,N/A,,Mostly Cloudy,230,2012-10-14 20:54:00
5:54 PM,63.0,53.1,70,30.00,10.0,Calm,Calm,-,N/A,,Clear,0,2012-10-14 21:54:00
6:54 PM,62.1,53.1,72,30.01,10.0,South,4.6,-,N/A,,Clear,190,2012-10-14 22:54:00
7:54 PM,61.0,52.0,72,30.00,10.0,SSW,5.8,-,N/A,,Clear,200,2012-10-14 23:54:00
8:54 PM,60.1,52.0,75,29.99,10.0,SSW,8.1,-,N/A,,Clear,200,2012-10-15 00:54:00
9:54 PM,60.1,52.0,75,29.99,10.0,SSW,5.8,-,N/A,,Clear,200,2012-10-15 01:54:00
10:54 PM,59.0,52.0,78,29.97,10.0,SSW,8.1,-,N/A,,Clear,200,2012-10-15 02:54:00
11:54 PM,60.1,53.1,78,29.95,10.0,SSW,8.1,-,N/A,,Overcast,200,2012-10-15 03:54:00